Theta_e
299 296 293 292 294 296 296 297 296 294 294 293 292 293 292 293 294 294 293 295 297 294 294 295 296 294 297 297 299 299 299 301 305 306 307 307 308 309 311 313 314 313 313 312 314 314 314 314 315 316 317 317 318 319 320 320 322 324 325 327 327 325 324 324 323 323 323 322 322 324 325 325 327 327 329 329 330 331 330 330 328 329 330 331 332 333
298 293 293 296 298 298 297 296 296 294 295 295 294 293 292 291 293 295 295 297 298 295 294 293 294 297 298 299 299 300 298 299 302 305 306 307 307 308 310 312 313 314 312 311 313 313 314 313 314 315 316 317 316 317 318 320 321 323 325 327 326 322 323 325 325 324 325 326 324 324 323 325 325 325 326 326 328 328 327 327 327 329 329 330 331 332
294 291 296 299 297 297 297 296 297 298 295 294 294 293 292 293 292 295 294 298 297 296 295 294 295 297 300 300 300 300 301 303 303 305 306 307 306 307 308 310 313 312 312 312 313 314 313 314 314 314 316 317 318 319 318 320 321 321 323 325 323 322 323 323 325 324 323 324 325 327 325 326 323 321 325 326 326 327 323 325 326 328 329 327 328 330
290 292 299 296 297 300 296 296 297 296 297 294 293 292 292 292 292 291 297 296 298 296 296 295 294 298 300 301 300 302 301 304 304 300 304 307 307 307 308 310 311 312 312 311 312 313 313 314 314 314 315 317 317 317 317 318 319 320 321 322 322 322 323 323 324 324 325 324 325 325 325 323 325 322 324 325 325 325 324 322 325 326 329 329 328 327
291 296 297 296 297 298 297 295 296 295 294 294 295 293 292 292 294 293 294 297 296 296 296 295 295 295 298 297 298 299 299 300 302 301 302 301 303 307 309 310 313 312 313 313 313 313 313 313 313 313 315 316 316 317 316 317 318 318 321 321 322 322 322 323 324 324 325 324 324 322 322 324 322 322 322 321 321 324 323 322 323 324 327 327 327 328
291 293 297 296 295 296 297 294 295 297 292 294 296 296 297 298 295 293 295 295 294 293 295 292 288 289 294 296 296 299 299 299 300 299 301 304 302 301 303 307 310 313 315 314 313 313 313 314 315 315 314 314 315 316 317 318 318 319 321 320 321 322 322 323 325 325 325 324 323 322 319 317 317 318 318 317 318 320 320 319 322 322 324 325 326 327
293 294 295 297 298 296 295 294 297 297 293 291 294 298 298 296 296 296 294 294 289 287 293 293 287 285 295 295 297 296 297 300 301 300 300 300 301 300 302 305 307 309 311 313 314 313 313 314 314 314 313 314 315 316 318 317 317 319 321 320 320 321 321 324 324 324 325 324 324 323 321 319 317 318 319 322 324 323 321 322 322 321 324 324 326 326
294 294 295 296 298 296 296 294 297 296 294 292 297 294 295 295 295 296 295 294 292 294 295 293 292 287 288 293 297 294 296 298 300 302 301 298 300 301 303 303 305 307 310 312 312 312 313 314 314 313 313 315 316 318 316 316 316 318 320 319 319 320 321 323 323 323 325 324 324 323 321 319 318 320 320 320 322 324 322 320 321 322 323 324 325 325
295 295 293 294 295 294 293 298 298 298 295 295 294 295 295 295 297 296 294 293 292 291 288 292 292 288 287 294 296 295 295 296 297 299 299 299 299 299 300 302 303 305 308 311 311 312 313 314 314 315 314 315 317 316 315 315 316 318 319 319 320 319 321 322 323 323 324 325 325 324 321 318 318 317 318 319 321 321 322 321 321 322 321 323 325 325
291 294 295 295 294 292 297 294 296 297 295 294 293 292 292 293 293 295 293 292 291 289 285 290 292 286 287 292 295 295 294 294 296 297 298 299 300 300 301 302 301 302 304 307 311 313 313 315 315 316 316 316 316 317 317 316 316 316 318 318 318 318 320 322 323 323 323 325 324 323 322 320 318 317 318 319 320 321 321 319 321 321 321 321 323 324
292 295 296 296 294 295 295 294 294 296 295 295 294 294 292 291 291 291 291 291 290 283 286 291 288 288 283 290 291 291 293 292 294 297 299 300 301 301 302 302 301 300 300 301 304 310 313 315 316 315 314 315 317 317 316 315 315 316 316 318 317 319 320 321 322 322 322 323 324 324 323 322 320 319 319 318 319 319 319 319 319 320 321 322 322 322
292 292 294 296 298 294 294 291 292 292 293 294 294 293 292 290 292 290 289 290 282 281 288 286 287 289 282 288 292 294 294 294 294 295 297 298 298 299 300 300 301 300 301 301 302 306 311 313 314 314 314 315 315 315 315 315 316 315 316 317 317 319 320 320 322 322 322 321 322 324 324 323 322 321 318 319 319 319 319 319 318 320 321 321 322 322
293 293 291 292 300 296 294 293 291 292 292 294 293 293 288 285 284 281 285 280 282 281 286 286 287 286 286 292 293 293 295 296 297 296 296 297 297 298 299 300 301 300 301 301 303 306 310 311 313 313 314 315 314 313 315 315 316 315 315 316 316 317 319 320 321 321 322 320 321 321 322 323 323 321 320 320 321 321 319 319 319 319 318 320 320 321
290 291 289 292 293 297 295 291 289 289 292 292 292 290 287 281 278 273 280 280 282 286 287 286 289 284 290 292 294 294 296 297 297 298 299 298 298 298 298 299 300 301 302 303 304 307 310 312 313 314 314 313 314 314 315 315 316 315 315 315 316 317 319 320 320 320 320 320 321 321 321 322 321 321 321 321 320 321 320 320 320 319 319 319 321 321
283 286 291 291 291 294 294 294 295 294 292 292 291 292 290 287 282 274 280 277 280 284 285 287 285 284 285 289 294 296 296 297 298 297 298 298 298 298 298 299 300 301 303 304 305 307 310 312 313 314 314 314 313 314 314 315 315 316 314 314 315 316 318 319 319 320 320 320 320 320 321 321 321 321 320 320 320 321 320 320 321 321 321 321 321 321
285 286 292 291 291 291 293 291 291 291 290 289 290 292 289 287 291 283 284 284 284 283 282 284 284 288 290 293 295 296 296 296 296 296 296 296 297 298 299 300 300 300 301 303 306 308 311 313 314 314 314 313 313 313 314 314 315 316 315 314 314 315 317 318 319 319 319 320 320 320 319 320 320 320 321 320 319 320 321 321 320 321 322 322 322 323
285 286 290 291 291 292 292 292 292 293 286 290 289 289 290 293 292 282 281 282 279 282 281 285 286 289 293 293 295 295 294 294 295 295 295 295 297 299 299 299 300 301 301 302 303 305 310 311 313 314 314 314 314 314 314 314 315 316 316 315 314 314 316 317 318 319 319 319 318 318 319 319 319 319 319 319 319 319 320 321 321 321 322 323 323 322
286 287 291 289 291 291 291 291 293 291 293 290 287 290 291 293 295 288 281 280 280 278 280 283 283 285 286 284 293 293 292 293 293 293 294 296 297 297 297 299 300 301 302 303 304 305 306 309 312 313 314 314 314 314 315 314 316 316 316 316 315 315 314 316 317 318 318 318 318 318 318 318 319 319 320 320 319 320 318 318 319 320 320 320 322 322
289 284 290 287 289 292 291 292 293 292 292 292 291 294 290 285 283 287 284 275 275 274 278 282 282 284 287 288 290 290 291 292 292 293 294 294 295 296 297 298 300 302 303 302 303 303 303 305 308 311 312 313 315 316 316 315 316 316 317 316 317 316 317 317 317 318 318 318 318 318 318 319 319 319 319 319 319 319 318 318 318 318 319 321 321 321
291 285 288 290 289 291 291 292 287 290 292 292 292 291 290 292 290 285 285 287 285 277 274 278 282 282 289 291 292 292 293 293 292 293 293 294 294 295 297 298 299 300 301 302 302 303 304 304 305 309 311 311 313 314 316 316 315 315 316 316 317 318 319 318 317 317 317 317 317 317 317 318 317 318 318 319 318 317 317 318 318 318 319 319 319 321
288 290 282 290 290 290 288 291 289 290 289 289 291 288 289 289 289 288 288 286 284 278 278 278 277 284 290 291 293 293 293 293 293 293 294 294 294 295 296 298 299 300 301 301 302 302 303 304 304 306 308 309 311 313 315 315 315 316 316 316 316 317 318 318 319 318 318 318 317 317 317 317 317 317 318 319 318 317 318 318 318 318 319 319 319 320
288 287 284 289 289 289 289 290 289 289 291 290 290 289 290 287 286 282 281 285 284 284 277 276 278 287 291 292 294 295 295 294 293 293 294 293 294 296 298 298 299 300 300 301 302 302 302 303 304 304 305 306 307 309 310 313 315 315 315 315 317 316 316 318 318 318 318 319 318 318 318 318 319 318 318 318 318 317 317 318 317 318 318 317 318 319
293 290 288 284 287 288 290 290 289 289 289 289 290 290 289 291 290 286 279 282 284 284 283 284 280 284 293 294 294 295 295 294 294 293 293 294 295 297 298 298 299 300 300 301 302 302 302 303 303 303 304 304 305 305 307 309 310 311 314 316 317 316 317 317 318 319 319 319 318 318 319 318 319 319 318 318 318 317 317 318 318 317 317 317 318 318
298 287 285 286 289 289 288 288 289 287 289 288 288 287 288 288 289 288 287 288 284 283 282 282 278 285 293 295 294 293 294 294 293 293 295 295 296 297 298 299 299 300 301 302 302 303 303 303 303 303 303 303 303 304 305 306 306 307 308 310 312 315 317 317 317 318 318 318 318 319 319 319 319 320 318 317 318 318 318 318 318 317 316 317 317 316
286 289 286 283 281 285 287 288 289 288 289 288 287 287 285 286 287 288 288 287 283 285 285 282 278 283 291 293 292 291 292 292 293 294 296 296 297 298 298 298 299 300 301 301 302 302 303 303 302 302 302 303 303 304 305 304 304 305 307 307 308 309 311 315 317 317 317 317 318 319 318 319 319 319 319 318 318 318 318 318 317 317 316 317 316 316
287 288 286 279 276 273 273 275 279 283 286 288 286 286 285 286 288 286 283 285 280 282 282 282 282 288 291 291 291 291 292 293 294 294 295 296 297 297 298 299 299 300 300 301 302 302 302 302 302 302 303 303 303 303 304 305 304 304 304 305 306 306 308 308 312 316 317 318 317 317 318 318 319 319 319 318 318 318 318 317 317 316 316 316 315 316
288 287 288 286 283 281 283 285 286 285 286 284 286 286 286 285 285 288 287 282 281 283 282 285 285 287 288 290 289 291 292 294 294 295 295 295 296 297 297 298 298 299 299 299 300 301 302 302 302 302 303 303 303 304 304 304 304 304 305 305 305 305 306 307 309 310 314 317 317 316 317 318 319 319 319 319 318 318 317 316 316 316 315 315 315 315
288 285 287 286 287 287 286 285 285 286 284 285 285 286 285 285 287 287 283 282 288 283 279 285 287 285 289 290 290 290 292 293 294 295 295 296 296 297 297 297 297 298 298 299 300 300 300 301 302 302 303 303 302 303 303 304 304 304 304 304 304 305 306 306 307 307 309 313 315 316 316 318 319 319 319 319 318 318 317 316 316 315 316 315 314 314
287 283 285 285 286 285 284 285 284 284 285 285 285 286 286 287 284 284 283 288 286 282 281 286 288 284 288 290 293 293 293 294 295 295 297 297 296 296 297 297 297 297 297 297 298 299 300 300 301 302 302 302 303 303 303 303 304 304 305 304 304 305 305 305 306 306 307 309 311 314 316 318 318 319 318 318 317 317 316 316 315 315 315 314 313 314
288 284 287 285 285 284 285 285 285 284 284 284 285 286 286 287 286 287 288 288 287 286 287 288 286 285 290 292 294 294 295 296 296 296 295 295 296 297 296 296 296 296 296 296 297 298 299 299 300 301 302 302 302 302 302 303 303 303 303 303 304 304 304 305 306 306 306 307 308 310 313 315 317 317 317 317 316 316 316 315 315 315 313 310 311 311
287 282 286 285 283 283 284 285 284 284 284 283 285 285 285 284 285 286 286 285 285 285 285 284 283 284 291 292 293 291 292 293 294 294 295 296 295 296 296 296 296 296 295 296 297 298 298 299 300 301 301 301 302 302 302 303 303 303 303 303 303 303 304 304 304 305 306 306 308 310 311 313 314 316 316 317 316 316 315 315 314 313 311 310 310 309
287 282 285 284 279 279 282 283 284 285 283 282 283 284 284 284 281 283 281 286 284 283 285 283 281 282 289 292 290 292 294 293 294 295 295 295 295 296 296 296 295 295 295 296 297 298 298 299 299 300 301 301 302 302 302 303 302 302 302 302 302 302 303 304 304 304 305 306 308 309 310 311 313 314 315 316 315 315 315 314 312 311 310 310 310 309
286 284 280 281 277 277 282 283 282 282 281 278 279 282 284 286 287 287 287 287 288 288 284 281 283 290 291 292 289 291 293 294 294 294 294 295 295 296 296 295 294 295 295 296 296 297 298 298 299 300 301 301 301 301 301 302 302 302 302 302 302 303 303 303 303 304 304 305 307 308 310 311 312 313 314 314 315 315 314 312 310 310 309 309 310 310
284 284 281 283 275 276 280 281 282 278 272 274 284 286 286 286 287 285 285 287 288 289 287 287 288 287 288 289 289 291 293 293 293 294 294 296 296 296 296 296 296 296 297 297 297 297 298 299 300 300 301 301 301 301 302 303 302 302 303 302 302 302 302 302 302 303 304 305 306 307 309 310 310 311 313 314 314 313 312 311 310 310 310 310 309 308
284 283 281 282 276 276 278 278 275 270 273 283 286 287 287 286 285 285 286 287 286 287 288 287 288 289 288 290 291 293 292 292 293 294 295 295 296 296 297 296 295 296 296 297 298 298 299 300 301 301 301 302 301 302 303 302 303 303 301 302 301 301 301 302 302 303 303 304 305 307 308 308 309 310 312 312 313 312 311 310 310 310 310 309 307 307
282 281 280 278 279 277 274 274 266 271 281 284 286 287 289 287 287 286 284 287 287 287 287 286 289 290 291 291 291 292 293 293 294 294 294 295 295 296 296 297 298 297 296 297 298 299 300 299 300 300 301 302 301 301 301 302 303 302 301 301 301 301 301 302 302 302 303 304 305 306 307 307 308 309 311 311 311 311 310 309 309 307 308 307 307 307
286 284 281 278 280 274 273 274 275 280 280 283 282 285 286 284 284 284 279 282 286 287 288 289 290 290 291 291 291 292 293 293 291 292 294 293 294 295 296 297 299 299 298 299 298 298 300 300 300 300 301 301 301 301 302 302 302 302 301 300 300 300 300 301 301 302 303 303 304 305 306 307 308 309 310 311 310 310 309 309 308 307 305 304 304 303
287 282 282 279 276 278 275 274 273 273 270 277 282 287 288 289 289 288 283 282 287 287 288 288 287 288 289 291 291 291 293 289 287 289 292 294 295 295 296 297 297 298 298 299 299 299 300 300 301 301 301 301 301 301 302 302 302 301 300 300 300 300 300 301 301 302 302 303 304 304 306 307 307 308 309 310 310 310 310 310 309 307 305 303 301 301
284 285 283 281 277 276 274 272 271 268 274 281 284 287 289 288 288 288 282 280 285 287 288 288 287 288 289 288 289 292 289 285 286 289 293 294 294 294 293 295 296 297 297 297 297 297 298 300 301 300 300 300 300 301 303 303 302 300 299 299 300 300 300 301 302 302 302 303 304 304 305 306 307 308 309 309 310 310 309 308 306 304 304 302 301 301
283 280 281 278 275 276 275 272 273 274 275 283 286 287 288 288 287 285 275 276 284 287 288 288 287 288 289 289 289 290 287 284 286 290 294 293 292 293 294 294 295 296 296 297 298 299 299 299 299 299 300 300 301 302 302 302 300 299 299 299 300 299 300 301 302 303 303 304 304 305 306 307 308 308 309 309 310 310 309 306 303 301 301 301 300 300
279 279 279 276 276 276 274 275 275 277 282 285 286 288 287 287 286 278 273 279 285 287 288 289 288 290 290 289 290 286 290 291 291 293 295 295 294 295 296 297 296 296 295 296 297 297 298 298 298 298 299 300 300 301 302 301 300 299 299 299 299 299 301 302 303 303 303 304 305 305 306 307 308 308 309 310 309 309 305 303 302 301 301 301 302 302
276 275 276 276 275 275 276 273 275 277 283 289 290 289 289 283 276 275 281 286 286 286 289 289 289 290 290 290 290 290 290 291 293 294 294 294 294 295 295 295 295 295 296 296 296 296 297 297 298 298 298 299 300 300 300 300 299 298 299 299 299 300 302 303 303 303 303 304 304 305 306 307 308 308 309 309 308 304 301 301 302 301 299 299 298 297
277 274 274 274 275 273 273 273 271 269 280 287 287 285 288 278 279 284 286 287 288 287 287 288 289 289 289 290 291 292 292 292 292 292 292 293 293 293 293 294 294 294 294 295 296 296 296 296 296 297 298 299 300 300 299 299 298 298 298 298 300 301 302 303 303 303 303 303 304 305 306 307 307 307 308 306 304 302 299 299 299 298 297 295 295 295
282 274 274 274 278 273 271 269 272 279 283 289 285 279 284 285 287 288 287 285 287 287 287 288 290 291 292 291 290 291 291 291 292 292 292 292 292 293 293 293 293 294 295 295 295 296 296 296 296 297 298 299 299 299 299 299 298 298 298 298 301 302 302 303 303 303 303 303 304 305 305 306 306 307 306 303 301 299 297 296 296 295 296 297 296 294
283 278 279 275 280 276 275 277 283 285 286 287 286 286 288 290 290 289 288 287 287 287 290 288 289 291 291 291 291 291 290 291 291 292 291 292 292 293 293 293 293 294 294 295 295 296 296 296 296 296 297 298 299 299 299 299 298 298 297 299 301 301 302 302 303 303 303 303 304 304 305 306 305 304 302 301 299 298 297 296 295 293 293 293 292 293
284 283 285 281 279 284 285 285 286 285 286 286 288 289 288 288 289 289 288 287 288 289 290 289 290 291 291 292 290 290 290 290 291 291 292 292 292 293 294 294 294 295 295 295 296 296 296 296 296 296 296 297 298 298 299 299 299 298 299 301 301 301 302 302 302 302 303 303 304 304 305 304 303 302 301 299 299 298 297 297 297 294 292 292 292 291
283 283 282 278 282 279 274 284 283 284 286 287 287 288 290 290 289 289 288 288 289 289 290 291 291 291 291 291 290 290 290 291 290 291 291 292 292 292 293 293 294 294 295 294 296 296 296 296 295 296 296 296 298 299 300 300 300 300 300 300 301 302 303 303 302 302 302 303 303 304 303 302 300 299 298 298 298 298 298 299 298 296 295 296 295 294
278 284 279 280 280 277 277 282 284 286 287 287 287 286 286 287 288 289 289 290 290 290 290 290 290 290 291 290 290 290 290 291 290 290 291 291 292 292 292 293 293 294 295 296 296 296 296 295 295 295 296 296 298 299 300 300 300 300 301 301 302 303 303 302 302 302 302 303 303 302 301 300 292 295 297 297 296 295 295 296 297 295 291 292 293 293
283 284 277 281 278 281 283 284 285 285 285 286 286 288 288 287 287 288 289 289 289 288 289 290 291 290 290 290 290 290 290 291 291 292 291 291 292 292 293 294 294 295 295 295 296 296 295 295 295 295 296 297 299 299 299 299 300 301 301 302 303 303 302 302 301 301 302 302 302 300 299 298 297 297 295 295 295 296 298 296 295 294 294 296 296 294
282 278 282 280 276 276 277 280 283 277 278 283 285 287 288 289 288 288 288 288 288 288 289 289 289 291 291 291 291 290 290 290 291 292 291 292 292 293 293 294 294 294 295 295 295 295 295 295 295 296 296 297 299 299 299 299 300 301 302 303 303 303 302 301 301 300 300 301 300 298 296 295 295 294 294 294 295 294 292 287 288 293 297 294 288 287
281 281 281 277 276 276 281 284 285 284 283 284 286 287 288 289 288 287 287 287 288 289 290 289 288 289 290 291 292 291 290 290 291 292 292 292 293 294 294 294 293 293 294 295 294 294 295 296 296 297 297 297 298 299 299 299 300 301 302 302 302 301 301 301 299 299 299 297 296 294 293 293 294 294 294 295 294 293 292 292 291 287 287 289 288 288
Wind_Speed
2 2 1 1 1 3 2 3 1 2 4 4 2 3 2 1 2 3 2 2 2 2 1 0 2 3 6 6 3 2 2 5 6 7 6 7 8 9 10 10 10 9 8 4 4 6 7 7 5 4 4 5 5 4 5 6 7 8 8 8 8 5 4 5 5 4 5 5 4 2 2 3 3 3 4 4 4 4 5 6 7 6 5 5 4 3
1 1 2 5 5 3 0 4 5 6 1 2 2 3 2 2 2 2 2 3 2 2 1 1 2 4 5 4 4 1 1 8 9 7 8 9 10 9 11 12 13 10 3 5 5 6 8 8 7 6 5 7 9 7 7 8 8 8 8 9 7 6 5 4 4 4 3 2 3 3 3 3 3 4 4 4 4 4 4 5 5 5 5 5 4 4
2 2 3 4 2 5 4 4 3 3 5 2 3 2 2 2 4 5 1 1 2 1 1 2 3 3 3 3 3 3 5 3 6 10 12 11 11 10 11 11 9 6 8 7 8 7 8 9 8 7 6 7 8 7 8 7 7 7 7 6 7 6 6 5 4 4 3 2 2 2 3 3 4 2 2 3 4 4 5 4 4 4 4 5 5 5
2 1 4 3 6 6 3 3 6 5 3 3 2 3 3 2 2 1 2 2 4 3 3 2 4 4 3 3 4 4 3 4 0 3 4 7 11 13 15 14 11 11 9 11 12 11 9 10 9 8 8 8 7 7 7 7 8 6 6 7 8 8 7 6 5 3 3 4 4 5 4 3 2 3 3 4 4 4 5 5 4 4 3 4 5 6
3 4 4 6 3 4 4 3 4 3 3 0 2 2 0 2 2 2 2 4 1 3 1 3 4 4 2 2 2 2 3 5 3 3 5 5 7 6 4 5 10 13 13 12 10 9 10 11 14 13 10 8 9 9 10 9 8 6 9 9 9 8 8 6 6 5 6 6 6 5 5 5 5 3 3 4 4 3 4 4 5 4 4 5 5 5
5 1 4 4 2 2 5 3 5 4 2 2 6 8 6 3 4 2 2 2 2 1 5 4 5 1 2 3 2 0 2 2 2 2 5 3 3 5 10 12 9 10 9 12 14 15 15 15 11 9 11 12 11 11 10 8 9 9 8 8 8 7 6 7 7 7 7 6 6 6 5 4 2 3 3 4 5 4 4 4 3 4 4 5 4 4
1 1 3 4 5 3 3 2 2 6 3 2 3 8 5 5 3 4 2 0 1 3 3 2 4 2 0 1 2 2 4 3 3 5 1 1 2 5 8 8 9 11 11 11 11 11 11 11 11 13 13 14 13 12 9 8 9 9 9 9 9 8 7 7 7 8 6 6 6 7 6 6 5 4 3 1 1 3 3 4 4 4 3 4 5 5
2 2 4 4 4 3 2 1 4 8 5 4 2 6 6 6 5 4 3 1 0 0 1 2 1 4 4 3 2 2 4 4 5 4 5 1 1 3 6 9 10 11 12 11 13 15 15 14 16 17 17 14 14 10 10 9 9 11 10 10 9 7 7 6 7 7 7 8 7 6 5 4 4 4 3 3 3 2 4 5 5 4 4 4 5 5
3 2 3 1 1 1 2 2 6 7 4 1 1 2 5 3 2 4 2 2 1 2 4 2 2 3 3 2 2 2 3 3 2 6 8 5 3 5 7 8 9 11 12 13 13 14 15 15 16 15 14 14 10 11 12 12 10 8 9 9 9 8 8 7 8 7 7 7 7 7 6 5 3 2 1 2 3 4 4 6 4 5 5 5 4 5
3 4 2 3 3 5 1 1 7 8 5 1 6 7 6 6 6 2 2 2 1 2 4 3 1 5 6 1 3 2 2 2 4 8 7 8 8 7 6 6 9 11 11 12 15 14 14 14 13 10 7 8 9 8 8 7 8 8 8 9 10 11 9 8 9 7 8 7 6 6 6 7 5 3 2 3 4 4 5 6 5 5 5 5 5 5
3 3 1 2 3 1 4 3 1 0 3 7 4 6 4 5 3 2 4 1 1 2 6 2 2 3 6 0 2 2 2 3 7 6 5 7 9 10 10 10 7 7 9 10 9 10 9 5 6 8 11 11 7 8 10 9 9 9 9 11 12 11 8 8 9 9 8 7 7 7 7 8 7 6 5 5 4 4 5 6 6 5 5 4 5 5
4 2 2 2 2 3 3 5 3 3 3 4 2 3 3 3 1 2 2 1 2 3 1 3 1 3 5 1 3 1 4 5 5 6 8 9 11 11 12 12 11 9 7 7 8 10 9 8 9 10 11 11 10 10 10 10 9 9 9 10 12 11 10 9 8 8 7 7 7 6 7 8 7 7 6 7 7 7 7 7 6 5 5 5 5 5
4 3 0 4 2 3 3 5 2 1 1 3 3 3 3 1 1 1 2 2 4 4 2 3 0 2 8 4 3 3 2 3 2 4 6 8 10 11 12 13 10 8 6 4 6 7 9 10 10 12 12 10 11 12 13 13 11 9 9 11 13 12 11 10 9 9 9 8 8 8 8 8 6 7 7 7 6 7 7 6 6 6 6 6 6 6
5 2 1 2 1 1 2 5 3 3 4 5 5 3 4 4 1 2 1 1 3 3 2 1 1 4 2 3 2 3 3 4 5 5 5 7 9 10 10 9 9 8 5 1 3 5 8 8 8 8 9 8 7 8 9 9 8 8 8 10 12 12 11 10 10 9 9 9 8 8 7 7 6 7 7 6 6 6 6 6 8 8 7 7 7 7
3 4 1 1 1 2 3 5 2 1 5 4 3 6 5 5 4 2 4 4 4 2 2 1 2 1 3 3 3 3 4 5 4 4 5 6 6 6 6 6 9 9 7 3 2 4 5 6 8 8 7 6 6 8 9 8 9 7 6 7 9 9 9 10 10 8 9 8 8 7 6 6 6 6 6 6 5 5 6 6 7 6 6 6 7 7
3 5 3 1 1 1 1 1 2 6 4 1 1 3 3 4 4 7 1 3 2 2 1 3 2 0 1 3 3 2 2 4 5 5 6 5 5 5 5 10 10 10 10 8 4 3 4 5 7 7 7 7 7 8 7 9 8 8 8 7 8 9 8 9 9 9 8 7 5 6 7 6 6 5 4 4 4 4 5 6 7 7 7 6 6 5
1 3 2 4 2 1 1 2 1 2 5 4 3 5 1 3 5 5 2 3 1 1 3 2 2 3 2 2 1 2 2 3 4 4 5 6 6 7 9 9 10 10 11 10 9 7 4 4 5 6 7 7 8 8 9 8 8 8 7 7 9 9 8 9 9 8 8 7 7 7 7 6 6 6 7 6 6 6 5 5 5 6 6 5 6 5
2 3 2 0 4 2 2 1 3 4 1 7 4 4 5 1 3 2 3 1 0 4 2 1 3 3 4 2 5 3 2 0 2 4 4 5 7 9 8 9 10 10 10 10 11 11 9 6 3 4 6 8 9 10 11 12 11 10 10 10 10 9 11 9 9 9 9 9 9 9 9 9 9 8 8 7 6 5 5 5 5 4 4 6 6 6
2 4 2 1 2 3 3 2 3 4 3 3 2 3 3 2 4 1 2 1 2 2 2 2 1 2 6 4 7 9 6 4 1 2 2 6 7 7 7 8 9 10 10 11 12 11 11 9 6 3 4 3 1 5 6 7 8 7 7 9 10 12 12 10 7 7 7 8 6 6 8 9 9 8 7 6 5 4 6 7 6 7 6 5 5 6
1 2 3 1 1 4 3 1 3 3 4 4 3 4 2 2 2 3 2 1 2 2 1 1 3 4 7 3 10 11 8 5 2 1 3 4 4 4 5 6 8 9 9 10 11 12 12 12 11 8 7 7 4 3 1 4 6 9 9 9 10 8 7 8 9 8 9 8 7 7 6 7 6 7 7 7 7 7 8 8 8 7 7 7 7 7
0 1 2 1 2 2 3 2 2 0 2 3 3 1 2 2 2 2 2 2 3 2 2 1 2 4 1 2 6 10 7 5 3 0 2 3 3 4 4 5 6 8 8 9 9 10 12 12 11 11 9 8 7 6 4 2 1 2 4 7 8 9 9 9 9 9 8 7 8 9 9 8 9 10 9 8 8 8 8 8 8 8 7 7 8 8
1 1 2 3 4 3 2 2 2 2 1 1 2 3 3 4 5 4 4 3 1 3 3 3 5 1 1 1 2 4 4 3 2 2 1 3 4 4 4 6 6 6 7 8 9 9 10 11 11 11 10 10 10 8 9 5 2 3 1 3 4 5 7 8 8 8 8 8 8 10 9 10 8 8 9 10 10 10 9 8 8 8 7 8 8 9
0 1 0 3 6 5 2 1 3 3 2 2 2 2 1 0 0 4 5 3 0 1 2 1 1 1 3 2 1 2 1 3 1 2 2 2 2 3 4 5 5 6 7 7 8 8 9 9 9 10 12 12 11 10 9 7 8 9 9 6 3 4 6 6 7 8 8 8 9 10 10 10 11 10 9 10 9 10 10 9 9 8 9 8 7 7
2 0 1 3 3 3 1 1 1 1 3 2 2 2 2 4 2 4 3 1 2 4 2 1 2 1 2 1 1 2 2 2 0 2 5 4 3 3 4 5 5 6 7 7 6 7 7 7 8 10 11 11 10 9 9 9 10 10 10 9 8 7 5 5 5 5 6 7 9 9 9 11 11 9 10 10 10 11 11 9 8 8 9 9 7 9
2 1 1 1 2 4 4 3 2 2 2 1 1 2 1 1 3 2 3 2 2 5 3 4 9 2 4 1 1 1 2 4 4 4 3 6 4 3 4 4 4 5 6 8 9 8 8 10 10 9 8 8 8 8 8 9 9 9 9 8 7 8 8 7 4 4 6 7 9 9 9 11 11 10 10 10 9 10 10 9 8 7 10 9 9 9
1 1 2 3 4 5 3 3 5 2 1 2 1 2 1 1 4 2 4 3 5 2 3 3 1 0 2 1 2 1 1 4 3 3 2 1 3 3 3 3 3 4 5 7 8 9 10 8 8 8 8 7 7 7 7 6 6 6 5 5 5 6 7 8 7 5 4 6 8 9 10 11 11 11 11 10 10 9 8 7 8 8 8 10 11 10
1 1 2 4 7 8 8 6 2 1 1 4 2 1 2 3 3 2 2 1 5 2 4 2 1 1 5 8 5 4 4 6 6 5 5 5 3 2 2 2 3 3 4 6 5 4 5 7 8 8 9 8 8 8 7 7 7 6 5 4 4 5 5 7 7 7 5 5 7 8 9 10 11 10 9 9 9 8 8 8 9 10 10 10 10 11
2 1 2 2 6 7 2 4 1 1 6 5 6 6 3 2 2 4 4 5 4 2 8 4 5 6 7 8 7 5 5 5 4 5 5 4 3 3 2 1 2 4 4 3 4 4 4 4 4 5 5 6 7 7 8 8 7 7 7 7 7 6 6 5 6 7 6 5 4 7 10 10 10 9 9 8 8 9 8 8 9 10 10 9 10 10
1 1 1 2 4 3 4 5 2 3 5 6 6 5 7 6 5 7 4 4 7 6 9 7 9 6 4 7 9 8 10 10 10 8 5 2 1 2 3 3 3 3 2 3 3 2 3 4 3 3 4 3 3 4 4 4 5 5 6 7 8 8 8 7 6 6 5 6 6 6 7 8 9 8 9 8 9 9 9 9 10 10 7 4 4 2
1 2 4 3 5 3 5 6 4 5 3 4 7 8 9 7 9 9 9 6 11 11 7 5 7 10 7 6 6 5 7 8 5 1 1 3 4 5 3 3 3 2 2 2 3 3 3 4 4 3 3 4 5 6 6 6 6 7 7 8 8 9 9 8 7 6 5 4 4 5 7 8 8 9 9 9 9 9 9 8 8 6 5 7 8 7
2 1 4 2 2 6 4 5 4 7 6 11 10 7 4 5 8 9 7 3 1 8 3 4 6 10 3 2 4 3 1 2 1 5 5 3 3 4 4 3 2 1 2 2 2 3 3 3 4 4 5 6 6 6 5 5 7 7 8 8 9 9 8 8 8 8 7 7 5 5 6 6 7 8 9 10 10 9 8 8 6 7 8 10 9 9
1 1 1 2 5 5 5 10 12 8 8 10 10 6 8 8 6 4 5 6 6 6 6 6 6 6 8 7 1 1 3 6 9 6 4 3 3 3 4 3 2 2 3 3 3 3 4 5 5 6 7 7 7 7 6 6 7 6 7 7 8 8 8 7 7 8 8 8 7 7 6 6 6 7 8 9 9 9 8 6 7 9 10 10 11 10
2 1 1 0 4 5 5 5 5 6 8 12 7 9 16 12 8 3 5 3 11 10 8 7 10 5 2 2 6 8 8 7 5 3 3 2 3 4 4 2 2 1 2 3 5 5 5 6 6 5 5 5 5 5 6 6 7 8 9 9 8 7 7 8 7 8 8 8 8 8 7 7 7 7 7 9 9 8 7 9 10 10 10 12 11 10
1 4 3 1 3 0 2 3 1 3 9 4 2 3 4 12 10 13 10 9 8 8 4 1 4 4 2 2 9 9 10 5 2 2 1 1 4 6 6 5 4 1 1 1 1 2 3 3 4 4 5 6 5 4 4 4 6 7 7 8 9 9 9 9 9 8 9 9 9 8 8 8 8 7 7 8 9 8 9 10 11 10 10 9 8 10
3 2 2 2 2 2 2 0 2 8 8 2 2 2 3 6 6 8 10 6 4 5 9 11 4 2 1 1 2 4 7 3 1 3 3 5 4 5 6 5 4 3 2 3 4 5 5 4 4 5 5 5 5 5 5 5 5 6 7 7 9 9 10 9 10 9 9 9 10 9 8 9 9 8 8 7 8 8 9 10 9 9 9 9 11 11
3 4 2 1 1 1 0 1 1 2 3 5 4 2 3 3 2 2 2 7 6 5 4 5 2 1 2 3 3 2 2 1 2 2 2 3 5 4 5 6 6 5 5 5 5 5 6 7 8 8 8 5 5 6 6 7 6 6 7 7 8 9 9 9 9 9 9 10 9 9 9 9 9 8 8 7 8 9 9 9 8 9 8 7 6 5
3 3 2 2 2 3 0 4 7 6 9 6 2 3 5 2 5 3 2 4 6 6 5 4 3 2 3 4 3 2 1 0 2 3 3 3 4 4 5 6 6 6 6 6 4 6 6 6 7 8 6 6 6 7 8 7 6 6 6 7 8 9 9 9 9 9 10 10 9 9 9 9 9 8 8 8 9 9 9 9 10 7 5 5 5 7
5 2 1 2 1 1 3 4 2 2 4 1 1 3 1 3 3 3 1 3 5 6 4 5 8 6 7 5 4 3 2 1 3 3 3 5 4 5 3 4 5 5 6 7 7 7 8 7 7 7 6 8 8 8 8 8 7 7 7 8 8 9 9 8 9 10 10 10 10 10 10 9 9 9 9 9 10 10 10 9 6 5 6 8 8 8
4 3 1 3 2 2 1 3 2 2 1 1 1 4 4 1 3 3 2 4 3 4 5 4 8 7 6 6 5 3 2 2 2 3 5 6 6 5 6 8 8 7 7 7 8 10 12 11 10 10 9 9 10 10 10 9 9 9 9 9 9 9 9 9 10 10 10 10 10 11 10 9 9 9 9 10 11 10 9 7 7 6 6 7 6 6
4 1 1 1 2 3 2 3 5 2 1 2 2 4 3 0 4 3 5 2 4 7 6 6 7 7 6 3 1 1 1 3 4 6 7 5 4 5 6 9 10 11 11 10 9 8 10 10 10 11 11 11 12 11 11 9 9 9 9 10 9 10 10 11 11 10 9 10 10 10 10 9 9 9 9 11 11 10 7 5 6 8 8 7 8 10
1 0 1 3 1 1 3 3 1 3 2 3 3 4 2 2 2 5 7 2 6 6 7 5 6 6 4 1 2 3 3 4 7 9 8 8 8 8 7 7 9 10 11 11 11 10 9 9 9 11 12 12 12 11 10 8 9 10 10 10 10 11 11 11 10 10 10 10 10 10 10 9 9 10 11 11 11 7 5 6 7 8 9 8 7 8
0 1 0 1 2 4 2 2 4 2 1 1 1 3 2 2 4 4 4 4 5 8 5 5 7 6 3 4 3 4 6 7 6 7 8 10 9 9 10 10 9 9 10 11 12 11 10 10 10 12 13 13 13 12 10 9 10 11 11 11 12 12 12 11 10 10 11 11 11 11 10 10 10 10 10 9 5 5 6 5 6 6 6 6 7 10
1 0 2 1 0 1 1 4 2 4 2 1 6 5 3 3 1 4 7 6 4 6 8 6 5 8 5 5 6 6 6 6 7 7 8 9 9 11 11 12 12 11 11 11 10 10 10 11 11 13 13 12 12 11 10 11 12 12 11 12 14 13 12 10 10 10 11 12 12 11 11 10 11 10 7 5 6 9 9 8 7 7 9 11 9 9
1 2 1 1 2 4 1 3 2 2 2 3 7 6 3 1 3 6 6 9 8 6 6 7 5 5 5 6 6 5 6 7 8 7 8 8 9 11 10 10 12 13 12 12 12 12 12 13 13 12 12 11 11 11 11 11 12 12 12 15 14 12 11 11 11 11 12 12 12 12 11 11 10 9 7 7 8 9 10 11 9 8 5 8 10 9
3 0 1 4 0 2 3 2 6 3 3 3 3 6 7 6 9 10 8 7 7 8 6 6 6 2 3 4 6 7 8 7 10 10 11 12 12 13 13 13 14 15 15 14 13 12 11 13 15 13 12 11 12 11 11 11 12 14 15 15 13 13 13 12 11 12 12 11 11 11 10 9 8 7 7 8 11 12 12 10 9 9 7 8 7 7
5 2 1 3 4 4 8 9 6 8 8 10 4 3 7 10 11 7 6 6 6 8 8 8 8 8 8 6 7 8 9 11 12 13 12 13 13 14 13 13 13 13 13 13 13 13 13 13 13 13 13 13 13 12 11 11 12 14 15 13 13 13 13 13 13 13 12 12 11 10 9 9 7 7 9 10 9 10 8 9 9 10 8 8 7 7
1 1 2 5 3 5 4 4 8 10 11 10 12 10 7 6 6 6 6 5 7 9 9 8 7 9 9 8 9 10 11 10 12 12 12 13 14 14 15 15 15 13 14 16 15 13 12 12 12 14 14 14 12 11 11 12 12 13 13 14 14 14 14 14 15 14 12 11 10 9 8 8 8 9 9 10 7 8 7 8 9 9 9 8 8 7
5 4 5 7 6 5 8 8 11 13 11 10 9 9 10 10 10 7 6 8 9 8 7 10 10 10 7 8 9 10 12 10 11 12 12 12 13 13 14 15 16 15 14 14 15 14 13 13 14 15 15 14 13 11 11 12 13 13 14 13 13 13 13 15 15 14 13 11 9 8 8 8 10 11 8 9 9 7 7 8 9 9 6 5 7 6
3 1 5 1 7 9 10 11 10 10 12 10 8 7 6 8 10 12 10 10 11 13 14 12 9 11 10 11 11 11 12 13 12 13 14 14 14 14 14 15 16 16 15 15 15 13 12 14 15 16 16 16 13 12 12 13 13 13 14 14 13 13 14 14 13 14 14 11 9 7 7 8 9 9 10 10 9 8 6 7 7 8 5 4 5 5
3 7 5 5 7 8 7 9 11 12 11 11 16 17 15 10 9 11 12 12 13 13 12 13 14 13 11 10 10 10 12 13 15 14 15 15 15 16 17 17 16 17 17 15 13 15 15 15 16 16 16 15 14 13 14 14 14 14 14 14 14 14 13 12 11 13 12 10 8 7 8 8 8 8 10 10 10 8 8 13 13 7 7 5 4 8
6 7 5 7 7 9 10 13 10 12 15 13 14 17 16 12 10 13 14 16 16 14 12 12 13 13 13 12 9 10 12 13 17 15 15 15 15 14 15 17 17 16 16 15 15 16 16 15 15 16 17 15 14 14 14 15 15 14 14 13 12 12 12 12 11 10 8 8 8 9 10 9 9 8 8 7 9 8 8 6 8 15 11 8 10 10
Wind_Direction
309 135 224 223 255 234 202 209 157 145 144 89 96 147 146 216 245 260 266 1 359 248 178 67 284 252 285 265 263 92 102 163 183 194 194 198 201 203 210 215 221 225 224 173 182 178 185 191 178 165 165 171 174 179 176 169 166 166 162 158 158 153 158 160 157 156 149 145 125 109 124 123 131 115 101 88 82 84 87 91 97 96 96 100 98 89
237 54 244 226 231 217 189 144 116 100 77 152 145 185 174 219 212 82 36 13 24 305 48 68 299 276 275 287 266 287 179 203 188 191 198 201 206 209 211 216 218 218 182 194 190 183 179 188 174 168 177 175 180 191 183 185 174 171 162 162 146 149 168 173 165 152 161 151 150 146 145 135 144 143 137 121 109 100 93 89 90 95 98 94 92 91
55 215 253 229 143 95 87 128 151 146 138 110 208 185 234 228 279 302 256 315 354 230 313 120 302 293 284 286 282 228 206 222 195 194 199 194 198 207 214 222 223 207 212 199 207 181 190 182 177 180 181 189 198 179 187 184 167 163 162 156 150 160 165 175 169 166 158 130 73 90 133 145 121 53 45 95 106 114 105 86 85 89 93 96 97 95
268 303 202 93 143 113 75 112 130 100 93 153 163 193 234 63 299 192 161 327 15 11 341 2 304 285 297 248 272 277 255 300 17 234 246 211 200 202 207 207 206 213 206 209 204 196 185 185 182 184 188 186 186 187 189 183 180 168 164 163 168 164 169 171 177 161 97 93 88 76 91 71 70 119 117 107 115 111 109 93 83 78 85 93 98 99
240 107 87 121 147 177 139 154 151 167 185 327 208 237 230 194 216 244 337 323 247 123 3 262 249 264 59 168 133 18 329 295 314 308 194 213 243 252 294 257 215 209 204 208 199 192 185 189 195 193 179 171 190 192 191 183 181 174 173 173 172 166 171 169 167 155 135 121 105 101 92 89 93 105 131 131 120 118 109 107 89 80 83 96 97 91
276 329 161 115 131 135 145 154 204 163 191 184 221 208 209 177 186 235 306 294 325 232 52 356 295 225 327 294 209 10 325 235 277 319 267 261 209 218 225 227 227 238 222 207 201 198 194 197 186 168 173 186 194 197 193 181 179 177 170 165 173 168 169 169 167 161 153 151 143 142 137 148 158 164 170 171 154 150 140 110 101 96 87 96 89 86
12 88 208 181 149 139 187 218 218 202 169 167 241 189 184 168 127 148 144 349 297 307 55 337 284 279 342 35 96 347 307 271 191 222 91 5 213 211 232 233 226 225 223 223 220 206 200 199 186 187 185 191 194 198 169 173 182 184 171 169 174 172 173 173 167 169 155 151 159 159 162 168 174 180 187 68 89 131 115 118 114 104 88 91 99 86
141 86 78 57 105 134 178 294 196 176 154 201 83 146 139 140 171 167 137 192 328 322 270 34 353 273 284 267 98 312 309 316 334 355 68 45 285 257 231 226 226 227 226 222 217 212 206 194 192 191 192 186 196 172 166 176 181 186 173 165 174 174 177 181 170 176 171 160 162 154 154 163 183 186 173 162 146 115 133 129 120 113 104 96 99 106
174 130 178 155 120 174 285 232 152 199 169 354 128 164 134 144 129 135 136 104 12 296 266 171 116 262 236 275 137 313 277 10 4 5 340 333 282 248 259 266 258 243 233 219 214 212 205 198 199 195 187 189 170 167 181 182 179 173 167 170 172 176 179 182 182 176 180 171 164 162 161 167 173 151 125 146 146 150 148 135 124 118 115 107 97 103
245 217 223 202 203 265 210 248 172 173 190 79 131 96 91 89 69 54 119 123 119 253 262 246 66 267 281 252 283 63 108 2 335 330 319 326 323 310 288 257 253 267 263 241 233 221 207 205 198 185 162 160 182 174 169 164 165 172 169 173 175 184 184 178 185 185 178 175 165 163 172 180 164 164 146 163 153 154 159 147 143 135 134 127 121 112
319 294 152 203 223 265 117 47 120 111 33 124 183 101 74 54 61 62 54 101 137 233 251 14 340 261 285 334 344 23 33 308 314 309 315 326 332 330 325 313 299 274 259 262 251 240 227 197 168 159 182 178 158 163 172 175 179 175 177 177 185 187 180 177 188 186 179 177 179 180 178 185 178 167 164 160 158 159 166 161 158 154 145 143 133 127
312 86 184 223 42 116 123 91 48 43 122 166 165 134 118 89 49 93 50 55 223 250 217 6 267 198 243 174 128 103 296 258 259 286 310 324 327 326 320 319 320 308 287 254 231 220 199 178 179 172 180 172 168 164 176 179 178 183 180 181 184 185 183 179 188 189 182 181 185 191 181 187 189 174 180 182 172 174 175 169 163 154 150 150 143 139
288 203 1 314 228 178 147 110 100 107 200 191 127 128 250 228 41 216 187 217 207 256 62 2 10 205 226 267 341 351 317 309 285 280 305 315 314 318 321 325 322 318 299 252 223 196 181 184 177 183 181 160 168 181 180 181 183 181 183 184 185 188 182 183 185 192 186 186 187 187 189 194 184 188 192 190 181 173 173 169 164 164 165 158 160 159
284 238 314 271 133 88 195 220 133 195 180 187 199 156 207 239 186 260 203 357 300 250 29 255 14 266 357 282 54 326 323 331 319 312 314 313 308 311 321 330 337 328 316 277 185 191 177 177 173 181 180 178 165 171 177 182 184 188 190 186 190 190 180 181 185 191 190 198 193 188 191 194 184 194 195 198 189 175 175 172 172 176 172 171 172 165
305 332 117 183 157 33 243 262 226 323 166 200 17 190 215 196 200 230 222 240 264 322 49 54 212 229 220 98 345 353 328 330 352 346 344 328 324 317 320 354 7 353 2 358 134 159 162 160 162 165 166 169 169 168 174 178 190 193 199 197 200 193 184 186 188 189 197 199 196 193 195 195 198 197 194 202 197 175 172 176 177 181 173 175 172 172
270 257 269 286 352 102 226 98 122 113 92 76 210 48 155 221 133 251 40 277 243 163 182 176 250 16 256 1 308 311 357 42 11 1 341 354 347 325 14 27 18 11 12 11 25 97 128 148 154 150 156 164 164 169 169 181 187 195 198 190 196 202 190 192 192 198 201 202 196 195 195 200 204 213 205 203 193 192 185 174 180 180 182 184 169 166
88 245 326 325 155 341 84 210 219 223 242 150 165 207 205 39 126 90 112 56 48 15 240 87 270 211 258 215 120 46 46 57 17 14 9 2 357 6 31 21 25 25 23 21 26 22 42 122 138 148 153 160 162 166 175 181 189 195 189 189 197 205 207 199 198 197 197 201 196 201 201 197 203 212 213 209 199 195 188 186 186 181 188 170 169 165
259 284 311 34 266 78 286 106 74 30 93 112 221 174 108 124 52 159 229 59 132 239 244 123 215 185 177 209 162 168 162 64 16 16 6 19 14 34 23 20 19 25 28 33 39 42 33 20 69 125 158 168 174 175 176 183 184 188 191 194 193 198 210 202 190 196 196 201 202 193 192 196 202 208 215 214 205 188 185 192 188 181 174 185 178 168
206 270 287 19 261 299 11 233 80 79 344 283 332 119 215 192 201 66 112 201 187 212 249 186 291 264 223 202 154 183 181 180 121 353 24 43 30 27 24 22 23 24 28 31 33 38 35 33 25 71 78 41 152 177 177 176 178 188 197 197 198 204 206 197 191 194 201 208 206 203 200 195 196 203 211 215 208 189 198 198 192 187 187 175 170 168
329 266 284 145 193 352 326 43 234 128 62 62 139 129 30 274 263 179 198 356 229 255 119 212 168 232 193 202 176 169 183 168 151 216 71 54 32 17 22 25 29 28 27 29 35 38 43 43 38 34 67 83 70 41 9 179 180 192 200 206 214 215 199 192 192 191 204 206 207 206 201 205 208 210 210 206 197 200 203 202 194 188 185 185 177 181
129 7 264 41 283 289 216 343 261 199 168 140 183 143 148 42 347 356 74 221 240 193 203 200 223 223 161 186 170 169 171 163 211 157 47 33 27 20 24 28 36 44 35 34 34 37 42 44 45 47 46 60 63 73 74 47 205 227 219 221 222 216 209 204 200 194 205 196 205 204 209 206 199 204 207 210 207 208 205 199 192 194 190 174 187 178
95 156 250 336 319 271 317 32 339 211 348 278 241 224 192 156 185 204 222 100 235 205 201 173 232 145 75 141 210 127 140 158 202 278 344 22 21 11 17 28 26 44 45 43 39 38 40 37 42 44 44 48 54 41 46 39 66 95 27 304 288 245 224 216 210 206 206 202 204 205 206 210 210 211 204 202 202 209 210 200 196 193 184 190 190 182
324 125 80 257 269 295 358 59 294 284 263 281 272 251 154 46 184 230 246 178 69 107 57 21 345 218 67 159 238 251 211 208 194 195 152 118 58 32 26 29 34 40 42 42 45 45 45 44 42 46 46 46 46 42 35 35 47 49 41 13 317 277 263 248 233 217 212 206 207 210 210 215 220 216 212 208 206 206 208 204 198 188 190 195 184 185
166 282 245 272 305 273 329 310 113 135 168 170 96 70 205 224 230 254 268 112 195 120 189 140 226 178 133 73 177 248 264 289 197 199 148 135 128 86 55 36 28 37 38 44 50 53 50 52 50 48 43 42 38 36 33 32 34 38 40 31 19 4 331 288 269 257 236 225 223 218 215 220 227 222 218 217 216 211 208 203 198 190 194 195 184 184
278 154 244 309 327 303 277 201 171 147 134 44 295 54 333 87 81 87 99 95 245 192 216 190 246 161 166 44 82 168 146 154 150 151 167 141 133 101 77 54 38 33 39 41 41 40 45 46 47 47 48 50 46 45 40 37 37 38 36 29 18 11 13 11 337 270 250 240 234 228 227 231 231 230 229 227 226 220 212 204 200 194 198 190 188 189
237 199 166 254 255 249 239 242 266 275 256 326 231 255 112 279 132 176 232 167 239 82 181 216 257 153 93 202 78 39 172 159 141 141 152 110 116 108 91 71 56 54 51 47 41 39 36 33 39 44 43 43 42 43 47 50 52 52 51 36 15 18 19 16 11 354 295 264 247 238 233 236 238 237 235 234 233 228 223 212 205 201 205 197 190 180
137 72 238 234 247 257 257 262 39 17 285 255 237 240 212 63 22 55 71 165 237 146 211 183 310 157 193 180 190 166 203 184 160 162 159 152 132 110 83 65 58 53 52 51 54 54 51 43 35 31 30 28 32 33 34 30 28 31 31 32 37 29 23 21 9 13 355 299 268 260 252 247 243 238 237 236 235 229 220 212 207 206 206 201 195 180
79 261 196 226 245 264 324 282 139 235 274 280 277 255 201 195 174 197 191 235 110 139 252 144 229 224 204 197 185 198 205 211 196 177 173 177 164 153 127 97 74 79 66 59 57 53 57 58 48 45 37 31 26 20 20 19 15 12 8 7 8 11 23 22 11 7 359 344 291 265 261 261 263 258 248 241 235 230 223 215 208 212 210 197 197 190
90 254 199 170 251 226 204 247 211 248 238 261 253 261 256 216 181 206 224 190 170 216 264 157 191 205 203 209 208 196 194 196 198 189 179 157 158 168 161 138 107 86 73 68 59 59 52 45 34 28 21 25 26 31 30 20 12 5 3 6 4 5 8 1 360 0 353 340 324 305 287 274 267 264 259 248 241 232 223 219 216 211 204 167 168 202
179 252 206 192 255 244 243 244 222 217 248 237 236 236 239 240 232 233 238 205 204 230 242 213 198 220 207 222 219 211 202 196 179 132 189 206 191 169 165 164 134 116 73 51 29 18 15 11 9 6 1 8 10 8 6 6 5 4 0 2 357 356 356 350 350 346 340 319 309 306 304 295 279 268 261 254 244 236 227 221 211 193 162 159 175 172
215 283 105 179 261 254 281 263 186 229 237 258 251 245 243 240 248 241 255 242 13 280 280 222 227 241 231 270 266 46 95 106 157 213 216 208 175 180 181 165 152 127 72 55 34 17 4 0 359 356 359 0 356 353 351 353 352 350 351 355 349 348 347 343 336 335 330 325 312 300 291 284 280 272 260 250 244 240 230 214 178 181 182 181 178 160
173 269 53 264 274 261 214 255 265 261 252 257 256 254 243 223 236 204 220 202 205 235 222 212 240 249 245 224 36 4 176 193 203 205 205 221 204 190 197 178 150 98 46 29 16 10 12 5 2 359 353 348 342 340 342 343 340 338 341 341 337 336 331 326 323 322 320 317 317 310 306 300 286 272 263 252 244 236 223 198 188 192 185 181 181 178
204 188 217 170 256 264 238 248 281 305 306 270 225 212 232 240 234 229 240 195 214 215 231 221 238 253 289 170 216 212 199 202 205 191 196 236 232 214 216 198 147 110 41 17 8 1 358 353 348 339 336 331 337 333 332 331 327 331 333 330 327 323 318 316 315 315 313 313 313 310 306 303 293 279 265 260 247 227 211 200 199 194 184 187 184 172
157 235 253 168 251 271 356 348 290 272 250 245 63 337 276 249 240 237 236 222 233 208 254 324 336 12 298 208 215 215 194 175 131 83 9 259 197 219 238 249 246 240 194 37 343 333 328 330 327 323 316 308 307 309 303 295 298 306 314 314 319 320 318 316 314 314 313 311 307 305 306 305 302 290 278 270 251 221 211 204 204 196 188 179 171 178
199 167 231 161 232 263 24 214 254 243 248 58 320 276 246 262 276 267 283 356 352 313 291 284 292 8 296 281 344 62 88 81 219 238 219 215 221 238 243 248 258 267 329 360 349 339 336 321 308 302 300 310 319 308 297 289 287 302 309 316 318 316 313 311 310 309 307 302 300 302 305 308 307 301 293 279 253 231 214 209 204 193 189 181 180 180
190 189 156 206 186 66 208 150 231 239 345 311 293 306 299 258 305 261 207 55 14 357 314 284 284 240 159 127 85 60 62 39 277 202 172 182 211 236 240 250 257 265 300 342 332 324 319 321 316 309 302 303 294 289 282 282 290 298 303 310 305 304 302 302 302 300 297 293 294 297 302 302 301 298 288 273 253 234 214 206 196 191 181 174 172 159
173 109 174 219 174 231 220 215 245 355 306 282 358 35 1 0 0 349 278 54 4 359 3 3 26 38 84 78 55 42 15 230 81 109 130 137 171 215 243 277 283 282 296 313 325 308 302 292 291 292 294 289 285 283 277 280 284 287 296 300 301 298 297 298 297 294 290 287 293 295 295 296 293 288 278 265 247 224 211 207 202 192 140 157 158 157
182 211 208 224 231 169 239 266 272 257 270 346 212 316 235 250 261 269 254 142 33 18 3 4 19 4 1 11 42 6 320 329 208 159 50 30 24 2 343 301 304 294 297 302 304 296 291 289 286 281 275 288 283 277 276 277 282 289 292 293 292 292 291 288 285 286 287 288 291 290 290 289 287 280 269 260 247 234 217 209 191 159 163 169 160 162
70 48 176 229 244 132 205 235 242 230 269 93 289 330 341 280 219 202 209 218 96 355 9 357 3 4 8 359 0 355 339 273 257 309 358 359 350 6 339 328 320 314 301 295 297 300 300 297 299 301 296 284 279 275 272 278 287 292 293 296 292 290 288 279 276 278 280 283 285 284 284 283 281 274 264 256 248 235 216 189 171 153 138 113 94 74
131 33 164 191 228 229 234 243 255 192 245 100 267 306 318 108 162 197 256 238 33 328 340 332 338 346 349 36 18 327 292 280 292 320 350 359 345 313 303 303 303 301 299 295 287 279 285 291 294 289 283 278 272 272 276 282 283 284 288 289 288 285 282 279 278 281 279 273 272 272 272 272 271 266 260 251 245 235 207 151 137 151 149 144 138 134
12 46 132 253 256 213 195 263 330 267 236 284 292 292 317 208 268 245 245 22 320 309 309 310 301 309 322 310 174 310 258 287 309 315 318 311 302 293 272 259 268 283 288 287 282 284 280 276 272 274 276 278 278 278 275 275 277 279 280 282 281 278 273 273 278 278 275 273 269 267 267 267 262 259 254 245 239 216 157 154 156 155 161 153 144 130
199 354 276 129 231 248 245 251 268 303 276 341 264 281 262 229 233 249 6 245 275 291 293 278 284 284 273 277 246 258 295 294 280 284 289 291 291 287 282 279 273 264 259 260 266 271 272 266 263 262 263 262 264 267 269 269 269 271 274 276 272 268 269 273 275 274 273 271 269 268 266 264 263 261 250 241 202 133 150 143 131 129 101 104 119 108
276 203 268 268 46 62 176 258 305 263 78 302 350 337 62 345 345 341 305 305 259 274 279 275 237 251 207 237 236 252 268 284 288 287 287 287 289 287 287 291 289 286 284 282 274 256 251 261 258 256 254 258 260 261 258 259 262 266 268 268 268 269 269 270 270 270 272 274 274 271 269 266 265 251 232 173 146 144 137 119 109 106 119 116 106 103
20 281 265 239 215 284 190 190 193 58 66 63 7 313 325 238 336 328 325 305 313 295 282 276 245 239 251 255 270 274 267 276 282 274 275 273 273 277 282 284 285 285 279 269 266 270 266 267 263 261 259 256 255 254 253 251 256 259 263 267 271 271 271 271 268 270 274 270 267 269 270 268 257 234 190 147 133 129 127 123 109 102 96 113 122 125
83 199 359 288 206 233 283 298 306 292 287 312 286 287 290 315 322 317 307 291 300 309 310 285 275 271 254 272 275 279 289 277 280 283 281 283 282 280 281 281 281 282 283 283 281 277 267 264 266 265 264 260 259 254 250 247 251 258 259 264 266 268 269 270 269 271 266 263 265 266 268 256 231 187 154 150 146 142 136 127 118 110 109 104 102 119
302 289 284 234 267 284 275 263 285 296 310 314 288 239 284 296 295 301 300 302 302 307 311 300 291 296 304 288 285 288 286 299 301 301 295 290 288 285 281 278 274 271 273 276 276 273 272 275 270 267 265 263 257 255 251 251 250 255 255 259 260 260 264 263 263 261 256 257 263 266 259 233 197 156 155 152 153 142 139 136 130 125 126 116 116 118
19 72 260 272 304 329 278 66 315 320 317 309 314 306 277 252 273 302 302 279 296 309 311 296 280 286 285 289 277 279 285 287 287 283 281 282 281 281 280 279 278 276 280 283 282 281 280 279 278 277 271 267 260 254 254 253 251 252 257 257 257 257 259 260 256 253 250 251 259 256 234 195 180 160 152 150 139 139 135 130 127 134 137 136 139 137
287 100 307 268 270 259 280 302 297 292 290 294 287 294 306 315 311 294 273 289 295 291 279 283 287 277 270 274 277 282 285 281 276 278 278 277 276 278 280 280 281 282 277 274 278 278 279 276 274 274 273 271 269 263 260 261 261 258 258 257 257 257 255 252 249 245 247 246 245 232 203 178 153 151 149 152 140 127 127 126 133 130 133 147 141 137
306 40 281 16 295 290 283 273 273 290 283 276 280 270 266 278 296 298 293 288 290 295 297 293 273 280 287 285 286 284 284 284 280 280 282 283 284 282 283 284 285 284 284 284 283 280 276 279 278 274 273 274 274 272 267 265 266 263 260 259 258 255 252 250 242 242 243 239 219 191 169 163 157 151 145 135 124 116 113 143 143 123 102 84 128 144
244 266 288 290 284 288 291 305 326 315 310 310 303 299 298 290 278 280 285 285 283 284 286 289 290 287 280 273 274 276 277 281 283 284 283 283 281 283 284 284 284 284 283 281 281 279 278 272 268 270 271 270 272 271 269 269 267 266 266 261 257 254 255 248 238 236 230 211 180 147 147 145 141 143 140 137 129 110 79 45 48 53 127 138 87 82
265 294 303 293 297 291 303 300 302 293 287 279 283 293 297 294 285 282 280 280 282 283 282 280 280 281 279 276 264 264 272 274 277 280 280 279 278 277 278 281 282 282 283 284 284 280 276 273 270 268 268 268 271 271 271 273 269 267 263 254 248 246 243 239 228 214 193 159 152 148 138 136 135 136 127 121 114 106 99 94 62 48 47 111 125 99